Location: LDNL
(36.4545°S, 141.6685°E)
Time: 16:19:02
(UTC+10:00)

Oscar 19 - Visible Passes

Search period start: 20 April 2024 00:00
Search period end: 30 April 2024 00:00
Orbit: 771 x 788 km, 98.9° (Epoch: 19 April)

Date Brightness Start Highest point End Pass type
(mag) Time Alt. Az. Time Alt. Az. Time Alt. Az.
20 Apr 10.9 04:31:25 10° NNE 04:36:34 65° ESE 04:36:55 63° SE visible
20 Apr 12.3 06:13:48 10° WNW 06:16:11 13° W 06:17:23 12° WSW visible
20 Apr 12.5 18:24:49 10° S 18:29:25 33° WSW 18:33:58 10° NW visible
21 Apr 12.3 03:59:46 10° NE 04:09:46 - S 04:03:39 30° E visible
21 Apr 11.5 05:39:03 10° NNW 05:43:29 28° W 05:44:08 27° W visible
22 Apr 13.4 03:29:08 10° E 03:37:35 - S 03:30:29 14° E visible
22 Apr 10.6 05:05:48 10° N 05:10:55 59° WNW 05:10:59 59° W visible
22 Apr 13.4 19:00:21 10° SSW 19:03:26 16° WSW 19:06:30 10° W visible
23 Apr 11.0 04:33:22 10° NNE 04:45:53 - S 04:37:52 61° ENE visible
23 Apr 12.3 06:15:57 10° WNW 06:18:10 13° W 06:18:22 13° W visible
23 Apr 12.6 18:26:47 10° S 18:31:21 32° WSW 18:35:50 10° NW visible
24 Apr 12.4 04:01:39 10° NE 04:04:48 28° E 04:04:48 28° E visible
24 Apr 11.5 05:41:04 10° NNW 05:45:18 27° W 05:45:18 27° W visible
25 Apr 13.5 03:30:58 10° ENE 03:31:45 12° E 03:31:45 12° E visible
25 Apr 10.8 05:07:45 10° N 05:12:15 53° NW 05:12:15 53° NW visible
25 Apr 13.4 19:02:23 10° SSW 19:05:21 16° WSW 19:08:19 10° W visible
26 Apr 11.3 04:35:17 10° NNE 04:39:13 51° NE 04:39:13 51° NE visible
26 Apr 12.4 06:18:06 10° WNW 06:19:43 12° W 06:19:43 12° W visible
26 Apr 12.6 18:28:45 10° S 18:33:15 31° WSW 18:37:43 10° NW visible
27 Apr 12.5 04:03:32 10° NE 04:06:13 25° ENE 04:06:13 25° ENE visible
27 Apr 11.6 05:43:04 10° NNW 05:46:43 25° WNW 05:46:43 25° WNW visible
28 Apr 13.5 03:32:47 10° ENE 03:33:14 11° E 03:33:14 11° E visible
28 Apr 11.0 05:09:42 10° N 05:13:43 46° NW 05:13:43 46° NW visible
28 Apr 13.4 19:04:23 10° SSW 19:07:15 15° WSW 19:10:06 10° W visible
29 Apr 11.5 04:37:11 10° NNE 04:40:44 44° NE 04:40:44 44° NE visible
29 Apr 12.5 06:20:16 10° WNW 06:21:14 11° W 06:21:14 11° W visible
29 Apr 12.6 18:30:42 10° S 18:35:09 30° WSW 18:39:34 10° NW visible
